Time,TemperatureF,DewpointF,PressureIn,WindDirection,WindDirectionDegrees,WindSpeedMPH,WindSpeedGustMPH,Humidity,HourlyPrecipIn,Conditions,Clouds,dailyrainin,SoftwareType,DateUTC
2013-07-01 00:04:00,79.7,76.6,0.00,North,0,1.1,1.6,88,0.00,,,-99.99,Homeseer,2013-07-01 04:04:00,
2013-07-01 00:14:00,79.7,76.6,0.00,ENE,67,1.3,2.0,88,0.00,,,-99.99,Homeseer,2013-07-01 04:14:00,
2013-07-01 00:24:00,79.9,76.5,0.00,WNW,297,1.1,0.0,87,0.00,,,-99.99,Homeseer,2013-07-01 04:24:00,
2013-07-01 00:34:00,79.7,76.3,0.00,WNW,297,0.0,0.0,87,0.00,,,-99.99,Homeseer,2013-07-01 04:34:00,
2013-07-01 00:44:00,79.9,76.8,0.00,NNE,22,1.1,0.0,88,0.00,,,-99.99,Homeseer,2013-07-01 04:44:00,
2013-07-01 00:54:00,79.9,76.8,0.00,North,0,1.1,0.0,88,0.00,,,-99.99,Homeseer,2013-07-01 04:54:00,
2013-07-01 01:04:00,79.9,76.5,0.00,ENE,67,0.0,0.0,87,0.00,,,-99.99,Homeseer,2013-07-01 05:04:00,
2013-07-01 01:14:00,79.5,76.4,0.00,WSW,247,0.0,0.0,88,0.00,,,-99.99,Homeseer,2013-07-01 05:14:00,
2013-07-01 01:24:00,79.7,76.6,0.00,South,180,0.9,1.3,88,0.00,,,-99.99,Homeseer,2013-07-01 05:24:00,
2013-07-01 01:34:00,79.9,76.8,0.00,North,0,0.0,0.0,88,0.00,,,-99.99,Homeseer,2013-07-01 05:34:00,
2013-07-01 01:44:00,79.5,76.4,0.00,East,90,0.0,0.0,88,0.00,,,-99.99,Homeseer,2013-07-01 05:44:00,
2013-07-01 01:54:00,79.5,76.2,0.00,ESE,112,0.0,0.0,87,0.00,,,-99.99,Homeseer,2013-07-01 05:54:00,
2013-07-01 02:04:00,79.5,76.2,0.00,ENE,67,0.0,0.0,87,0.00,,,-99.99,Homeseer,2013-07-01 06:04:00,
2013-07-01 02:14:00,79.7,76.3,0.00,SSE,157,2.5,0.0,87,0.00,,,-99.99,Homeseer,2013-07-01 06:14:00,
2013-07-01 02:24:00,79.9,76.5,0.00,South,180,0.9,0.9,87,0.00,,,-99.99,Homeseer,2013-07-01 06:24:00,
2013-07-01 02:34:00,80.1,76.7,0.00,North,0,2.7,3.8,87,0.00,,,-99.99,Homeseer,2013-07-01 06:34:00,
2013-07-01 02:44:00,80.2,76.6,0.00,SSE,157,2.0,2.0,86,0.00,,,-99.99,Homeseer,2013-07-01 06:44:00,
2013-07-01 02:54:00,80.2,76.6,0.00,West,270,1.3,0.0,86,0.00,,,-99.99,Homeseer,2013-07-01 06:54:00,
2013-07-01 03:04:00,80.2,76.6,0.00,South,180,0.0,0.0,86,0.00,,,-99.99,Homeseer,2013-07-01 07:04:00,
2013-07-01 03:14:00,80.2,76.6,0.00,ENE,67,2.5,2.5,86,0.00,,,-99.99,Homeseer,2013-07-01 07:14:00,
2013-07-01 03:24:00,80.4,76.8,0.00,South,180,2.0,2.9,86,0.00,,,-99.99,Homeseer,2013-07-01 07:24:00,
2013-07-01 03:34:00,80.6,76.7,0.00,SSE,157,3.1,6.3,85,0.00,,,-99.99,Homeseer,2013-07-01 07:34:00,
2013-07-01 03:44:00,80.6,76.7,0.00,WSW,247,0.0,0.0,85,0.00,,,-99.99,Homeseer,2013-07-01 07:44:00,
2013-07-01 03:54:00,80.6,76.7,0.00,WNW,297,0.9,2.7,85,0.00,,,-99.99,Homeseer,2013-07-01 07:54:00,
2013-07-01 04:04:00,80.6,76.7,0.00,WSW,247,2.2,2.2,85,0.00,,,-99.99,Homeseer,2013-07-01 08:04:00,
2013-07-01 04:14:00,80.8,77.1,0.00,SSE,157,1.3,2.0,86,0.00,,,-99.99,Homeseer,2013-07-01 08:14:00,
2013-07-01 04:24:00,80.8,76.6,0.00,WSW,247,2.7,4.7,84,0.00,,,-99.99,Homeseer,2013-07-01 08:24:00,
2013-07-01 04:34:00,81.0,76.5,0.00,SSE,157,2.2,4.3,83,0.00,,,-99.99,Homeseer,2013-07-01 08:34:00,
2013-07-01 04:44:00,80.8,76.6,0.00,South,180,3.4,3.4,84,0.00,,,-99.99,Homeseer,2013-07-01 08:44:00,
2013-07-01 04:54:00,81.0,76.8,0.00,North,0,3.1,3.1,84,0.00,,,-99.99,Homeseer,2013-07-01 08:54:00,
2013-07-01 05:04:00,81.0,76.8,0.00,SW,225,2.7,5.6,84,0.00,,,-99.99,Homeseer,2013-07-01 09:04:00,
2013-07-01 05:14:00,81.0,77.1,0.00,South,180,3.8,4.3,85,0.00,,,-99.99,Homeseer,2013-07-01 09:14:00,
2013-07-01 05:24:00,81.0,77.1,0.00,South,180,1.3,1.6,85,0.00,,,-99.99,Homeseer,2013-07-01 09:24:00,
2013-07-01 05:34:00,81.0,77.3,0.00,WNW,297,2.9,4.9,86,0.00,,,-99.99,Homeseer,2013-07-01 09:34:00,
2013-07-01 05:44:00,81.0,77.6,0.00,South,180,2.7,3.6,87,0.00,,,-99.99,Homeseer,2013-07-01 09:44:00,
2013-07-01 05:54:00,80.8,77.7,0.00,East,90,2.2,0.0,88,0.00,,,-99.99,Homeseer,2013-07-01 09:54:00,
2013-07-01 06:04:00,80.8,78.0,0.00,ENE,67,3.6,3.6,89,0.00,,,-99.99,Homeseer,2013-07-01 10:04:00,
2013-07-01 06:14:00,81.0,77.9,0.00,North,0,2.5,2.5,88,0.00,,,-99.99,Homeseer,2013-07-01 10:14:00,
2013-07-01 06:24:00,81.0,77.3,0.00,South,180,2.9,4.9,86,0.00,,,-99.99,Homeseer,2013-07-01 10:24:00,
2013-07-01 06:34:00,80.8,75.1,0.00,SSE,157,3.4,3.4,79,0.00,,,-99.99,Homeseer,2013-07-01 10:34:00,
2013-07-01 06:44:00,81.0,76.2,0.00,South,180,4.7,5.4,82,0.00,,,-99.99,Homeseer,2013-07-01 10:44:00,
2013-07-01 06:54:00,81.0,75.9,0.00,WNW,297,5.4,5.4,81,0.00,,,-99.99,Homeseer,2013-07-01 10:54:00,
2013-07-01 07:04:00,81.1,76.3,0.00,North,0,3.8,5.8,82,0.00,,,-99.99,Homeseer,2013-07-01 11:04:00,
2013-07-01 07:14:00,81.3,76.8,0.00,North,0,3.6,4.0,83,0.00,,,-99.99,Homeseer,2013-07-01 11:14:00,
2013-07-01 07:24:00,81.3,77.1,0.00,South,180,3.6,3.6,84,0.00,,,-99.99,Homeseer,2013-07-01 11:24:00,
2013-07-01 07:34:00,81.5,77.3,0.00,North,0,5.4,5.4,84,0.00,,,-99.99,Homeseer,2013-07-01 11:34:00,
2013-07-01 07:44:00,81.7,77.7,0.00,North,0,5.6,7.8,85,0.00,,,-99.99,Homeseer,2013-07-01 11:44:00,
2013-07-01 07:54:00,81.9,77.7,0.00,WSW,247,4.9,4.9,84,0.00,,,-99.99,Homeseer,2013-07-01 11:54:00,
2013-07-01 08:04:00,82.4,77.6,0.00,South,180,6.3,6.3,82,0.00,,,-99.99,Homeseer,2013-07-01 12:04:00,
2013-07-01 08:14:00,82.6,76.9,0.00,SSE,157,4.9,8.7,79,0.00,,,-99.99,Homeseer,2013-07-01 12:14:00,
2013-07-01 08:24:00,82.9,76.5,0.00,SSE,157,4.5,4.5,77,0.00,,,-99.99,Homeseer,2013-07-01 12:24:00,
2013-07-01 08:34:00,83.7,77.0,0.00,South,180,2.7,4.9,76,0.00,,,-99.99,Homeseer,2013-07-01 12:34:00,
2013-07-01 08:44:00,84.2,76.8,0.00,South,180,6.0,6.0,74,0.00,,,-99.99,Homeseer,2013-07-01 12:44:00,
2013-07-01 08:54:00,84.9,77.2,0.00,South,180,3.4,3.4,73,0.00,,,-99.99,Homeseer,2013-07-01 12:54:00,
2013-07-01 09:04:00,85.8,77.0,0.00,SSE,157,5.8,7.2,70,0.00,,,-99.99,Homeseer,2013-07-01 13:04:00,
2013-07-01 09:14:00,86.5,76.6,0.00,South,180,5.8,5.8,67,0.00,,,-99.99,Homeseer,2013-07-01 13:14:00,
2013-07-01 09:24:00,87.1,76.5,0.00,North,0,5.8,6.3,65,0.00,,,-99.99,Homeseer,2013-07-01 13:24:00,
2013-07-01 09:34:00,87.8,76.4,0.00,SE,135,2.7,2.7,63,0.00,,,-99.99,Homeseer,2013-07-01 13:34:00,
2013-07-01 09:44:00,88.0,76.2,0.00,North,0,4.7,4.7,62,0.00,,,-99.99,Homeseer,2013-07-01 13:44:00,
2013-07-01 09:54:00,88.2,74.4,0.00,SSE,157,4.7,4.7,57,0.00,,,-99.99,Homeseer,2013-07-01 13:54:00,
2013-07-01 10:04:00,88.5,74.3,0.00,North,0,2.9,2.9,56,0.00,,,-99.99,Homeseer,2013-07-01 14:04:00,
2013-07-01 10:14:00,89.4,75.5,0.00,SW,225,2.9,2.9,57,0.00,,,-99.99,Homeseer,2013-07-01 14:14:00,
2013-07-01 10:24:00,89.2,73.2,0.00,North,0,6.9,6.9,52,0.00,,,-99.99,Homeseer,2013-07-01 14:24:00,
2013-07-01 10:34:00,89.8,73.7,0.00,ESE,112,5.8,10.3,52,0.00,,,-99.99,Homeseer,2013-07-01 14:34:00,
2013-07-01 10:44:00,89.4,73.3,0.00,North,0,2.7,2.7,52,0.00,,,-99.99,Homeseer,2013-07-01 14:44:00,
2013-07-01 10:54:00,88.5,71.6,0.00,South,180,5.8,8.1,50,0.00,,,-99.99,Homeseer,2013-07-01 14:54:00,
2013-07-01 11:04:00,87.6,71.7,0.00,North,0,4.5,5.4,52,0.00,,,-99.99,Homeseer,2013-07-01 15:04:00,
2013-07-01 11:14:00,87.6,71.7,0.00,North,0,2.9,2.9,52,0.00,,,-99.99,Homeseer,2013-07-01 15:14:00,
2013-07-01 11:24:00,88.0,72.5,0.00,East,90,4.0,4.0,53,0.00,,,-99.99,Homeseer,2013-07-01 15:24:00,
2013-07-01 11:34:00,87.4,72.0,0.00,SE,135,6.7,6.7,53,0.00,,,-99.99,Homeseer,2013-07-01 15:34:00,
2013-07-01 11:44:00,87.3,72.7,0.00,SW,225,4.5,4.5,55,0.00,,,-99.99,Homeseer,2013-07-01 15:44:00,
2013-07-01 11:54:00,87.1,73.4,0.00,North,0,2.5,2.5,57,0.00,,,-99.99,Homeseer,2013-07-01 15:54:00,
2013-07-01 12:04:00,87.4,72.4,0.00,North,0,3.8,5.4,54,0.00,,,-99.99,Homeseer,2013-07-01 16:04:00,
2013-07-01 12:14:00,88.9,73.8,0.00,North,0,3.6,6.0,54,0.00,,,-99.99,Homeseer,2013-07-01 16:14:00,
2013-07-01 12:24:00,89.8,72.3,0.00,North,0,5.4,7.2,49,0.00,,,-99.99,Homeseer,2013-07-01 16:24:00,
2013-07-01 12:34:00,90.5,72.0,0.00,South,180,4.7,5.6,47,0.00,,,-99.99,Homeseer,2013-07-01 16:34:00,
2013-07-01 12:44:00,91.4,72.8,0.00,North,0,4.9,4.9,47,0.00,,,-99.99,Homeseer,2013-07-01 16:44:00,
2013-07-01 12:54:00,91.9,72.2,0.00,North,0,4.7,4.7,45,0.00,,,-99.99,Homeseer,2013-07-01 16:54:00,
2013-07-01 13:04:00,92.1,71.3,0.00,South,180,3.4,4.0,43,0.00,,,-99.99,Homeseer,2013-07-01 17:04:00,
2013-07-01 13:14:00,91.6,68.7,0.00,North,0,3.1,4.0,39,0.00,,,-99.99,Homeseer,2013-07-01 17:14:00,
2013-07-01 13:24:00,91.4,70.2,0.00,WSW,247,5.4,5.4,42,0.00,,,-99.99,Homeseer,2013-07-01 17:24:00,
2013-07-01 13:34:00,91.0,69.3,0.00,ESE,112,6.5,6.5,41,0.00,,,-99.99,Homeseer,2013-07-01 17:34:00,
2013-07-01 13:44:00,91.0,69.8,0.00,South,180,4.3,5.4,42,0.00,,,-99.99,Homeseer,2013-07-01 17:44:00,
2013-07-01 13:54:00,90.7,70.1,0.00,SSE,157,3.8,5.6,43,0.00,,,-99.99,Homeseer,2013-07-01 17:54:00,
2013-07-01 14:04:00,90.5,71.0,0.00,North,0,2.9,2.9,45,0.00,,,-99.99,Homeseer,2013-07-01 18:04:00,
2013-07-01 14:14:00,90.3,70.3,0.00,ESE,112,3.1,3.4,44,0.00,,,-99.99,Homeseer,2013-07-01 18:14:00,
2013-07-01 14:24:00,90.0,70.5,0.00,SSE,157,4.0,4.0,45,0.00,,,-99.99,Homeseer,2013-07-01 18:24:00,
2013-07-01 14:34:00,90.1,70.6,0.00,North,0,5.8,7.4,45,0.00,,,-99.99,Homeseer,2013-07-01 18:34:00,
2013-07-01 14:44:00,90.7,71.1,0.00,North,0,3.8,3.8,45,0.00,,,-99.99,Homeseer,2013-07-01 18:44:00,
2013-07-01 14:54:00,90.0,70.5,0.00,North,0,5.6,5.6,45,0.00,,,-99.99,Homeseer,2013-07-01 18:54:00,
2013-07-01 15:04:00,89.2,69.8,0.00,North,0,3.8,7.8,45,0.00,,,-99.99,Homeseer,2013-07-01 19:04:00,
2013-07-01 15:14:00,88.9,70.1,0.00,South,180,6.0,10.5,46,0.00,,,-99.99,Homeseer,2013-07-01 19:14:00,
2013-07-01 15:24:00,88.2,69.4,0.00,North,0,5.4,6.3,46,0.00,,,-99.99,Homeseer,2013-07-01 19:24:00,
2013-07-01 15:34:00,88.2,70.4,0.00,South,180,2.0,2.5,48,0.00,,,-99.99,Homeseer,2013-07-01 19:34:00,
2013-07-01 15:44:00,88.2,70.4,0.00,North,0,4.3,4.3,48,0.00,,,-99.99,Homeseer,2013-07-01 19:44:00,
2013-07-01 15:54:00,88.0,70.2,0.00,North,0,4.0,9.2,48,0.00,,,-99.99,Homeseer,2013-07-01 19:54:00,
2013-07-01 16:04:00,88.0,70.2,0.00,WSW,247,3.8,3.8,48,0.00,,,-99.99,Homeseer,2013-07-01 20:04:00,
2013-07-01 16:14:00,88.0,69.7,0.00,SW,225,5.6,5.6,47,0.00,,,-99.99,Homeseer,2013-07-01 20:14:00,
2013-07-01 16:24:00,87.8,70.0,0.00,North,0,2.9,2.9,48,0.00,,,-99.99,Homeseer,2013-07-01 20:24:00,
2013-07-01 16:34:00,87.6,69.9,0.00,South,180,5.4,6.5,48,0.00,,,-99.99,Homeseer,2013-07-01 20:34:00,
2013-07-01 16:44:00,87.4,69.7,0.00,North,0,3.1,3.1,48,0.00,,,-99.99,Homeseer,2013-07-01 20:44:00,
2013-07-01 16:54:00,87.1,70.4,0.00,South,180,2.7,4.3,50,0.00,,,-99.99,Homeseer,2013-07-01 20:54:00,
2013-07-01 17:04:00,86.9,71.1,0.00,North,0,2.5,2.5,52,0.00,,,-99.99,Homeseer,2013-07-01 21:04:00,
2013-07-01 17:14:00,86.5,70.7,0.00,ESE,112,2.9,3.8,52,0.00,,,-99.99,Homeseer,2013-07-01 21:14:00,
2013-07-01 17:24:00,86.2,70.0,0.00,North,0,3.1,3.1,51,0.00,,,-99.99,Homeseer,2013-07-01 21:24:00,
2013-07-01 17:34:00,86.0,70.3,0.00,North,0,3.4,3.4,52,0.00,,,-99.99,Homeseer,2013-07-01 21:34:00,
2013-07-01 17:44:00,86.0,71.5,0.00,ESE,112,2.7,3.6,55,0.00,,,-99.99,Homeseer,2013-07-01 21:44:00,
2013-07-01 17:54:00,85.8,71.4,0.00,SSE,157,2.5,2.7,55,0.00,,,-99.99,Homeseer,2013-07-01 21:54:00,
2013-07-01 18:04:00,86.0,72.0,0.00,South,180,1.1,1.6,56,0.00,,,-99.99,Homeseer,2013-07-01 22:04:00,
2013-07-01 18:14:00,86.0,72.4,0.00,South,180,2.2,3.8,57,0.00,,,-99.99,Homeseer,2013-07-01 22:14:00,
2013-07-01 18:24:00,85.8,72.2,0.00,North,0,1.3,3.6,57,0.00,,,-99.99,Homeseer,2013-07-01 22:24:00,
2013-07-01 18:34:00,85.6,71.6,0.00,SW,225,3.1,3.1,56,0.00,,,-99.99,Homeseer,2013-07-01 22:34:00,
2013-07-01 18:44:00,85.6,71.6,0.00,South,180,1.1,1.1,56,0.00,,,-99.99,Homeseer,2013-07-01 22:44:00,
2013-07-01 18:54:00,85.6,71.6,0.00,SSE,157,0.0,0.0,56,0.00,,,-99.99,Homeseer,2013-07-01 22:54:00,
2013-07-01 19:04:00,85.5,71.5,0.00,North,0,2.2,3.1,56,0.00,,,-99.99,Homeseer,2013-07-01 23:04:00,
2013-07-01 19:14:00,85.5,71.9,0.00,North,0,3.1,3.1,57,0.00,,,-99.99,Homeseer,2013-07-01 23:14:00,
2013-07-01 19:24:00,85.3,71.7,0.00,WSW,247,2.0,2.7,57,0.00,,,-99.99,Homeseer,2013-07-01 23:24:00,
2013-07-01 19:34:00,85.1,71.5,0.00,North,0,2.5,2.5,57,0.00,,,-99.99,Homeseer,2013-07-01 23:34:00,
2013-07-01 19:44:00,83.8,67.8,0.00,North,0,3.6,3.6,51,0.00,,,-99.99,Homeseer,2013-07-01 23:44:00,
2013-07-01 19:54:00,83.5,68.4,0.00,WNW,297,1.1,1.3,53,0.00,,,-99.99,Homeseer,2013-07-01 23:54:00,
2013-07-01 20:04:00,83.1,68.1,0.00,North,0,0.9,0.9,53,0.00,,,-99.99,Homeseer,2013-07-02 00:04:00,
2013-07-01 20:14:00,82.9,68.7,0.00,North,0,0.0,0.0,55,0.00,,,-99.99,Homeseer,2013-07-02 00:14:00,
2013-07-01 20:24:00,82.9,69.5,0.00,NW,315,0.0,0.0,57,0.00,,,-99.99,Homeseer,2013-07-02 00:24:00,
2013-07-01 20:34:00,82.6,69.2,0.00,WNW,297,0.0,0.0,57,0.00,,,-99.99,Homeseer,2013-07-02 00:34:00,
2013-07-01 20:44:00,82.4,69.1,0.00,NW,315,1.1,1.3,57,0.00,,,-99.99,Homeseer,2013-07-02 00:44:00,
2013-07-01 20:54:00,82.2,69.7,0.00,WNW,297,0.0,0.0,59,0.00,,,-99.99,Homeseer,2013-07-02 00:54:00,
2013-07-01 21:04:00,81.9,69.8,0.00,WNW,297,0.0,0.0,60,0.00,,,-99.99,Homeseer,2013-07-02 01:04:00,
2013-07-01 21:14:00,81.5,70.2,0.00,North,0,3.1,3.1,62,0.00,,,-99.99,Homeseer,2013-07-02 01:14:00,
2013-07-01 21:24:00,81.5,70.5,0.00,North,0,0.9,1.3,63,0.00,,,-99.99,Homeseer,2013-07-02 01:24:00,
2013-07-01 21:34:00,81.5,70.9,0.00,NW,315,0.0,0.0,64,0.00,,,-99.99,Homeseer,2013-07-02 01:34:00,
2013-07-01 21:44:00,81.7,71.1,0.00,WNW,297,1.6,1.6,64,0.00,,,-99.99,Homeseer,2013-07-02 01:44:00,
2013-07-01 21:54:00,81.3,71.1,0.00,North,0,2.5,2.7,65,0.00,,,-99.99,Homeseer,2013-07-02 01:54:00,
2013-07-01 22:04:00,81.3,71.1,0.00,NW,315,0.9,0.9,65,0.00,,,-99.99,Homeseer,2013-07-02 02:04:00,
2013-07-01 22:14:00,81.3,71.1,0.00,NW,315,0.0,0.0,65,0.00,,,-99.99,Homeseer,2013-07-02 02:14:00,
2013-07-01 22:24:00,81.3,70.7,0.00,NW,315,0.0,0.0,64,0.00,,,-99.99,Homeseer,2013-07-02 02:24:00,
2013-07-01 22:34:00,81.3,70.7,0.00,NW,315,0.0,0.0,64,0.00,,,-99.99,Homeseer,2013-07-02 02:34:00,
2013-07-01 22:44:00,81.5,70.9,0.00,NW,315,0.0,0.0,64,0.00,,,-99.99,Homeseer,2013-07-02 02:44:00,
2013-07-01 22:54:00,81.3,70.7,0.00,NW,315,0.0,0.0,64,0.00,,,-99.99,Homeseer,2013-07-02 02:54:00,
2013-07-01 23:04:00,81.5,71.2,0.00,NW,315,0.0,0.0,65,0.00,,,-99.99,Homeseer,2013-07-02 03:04:00,
2013-07-01 23:14:00,81.5,71.2,0.00,NW,315,0.0,0.0,65,0.00,,,-99.99,Homeseer,2013-07-02 03:14:00,
2013-07-01 23:24:00,81.7,71.8,0.00,SSE,157,0.0,0.0,66,0.00,,,-99.99,Homeseer,2013-07-02 03:24:00,
2013-07-01 23:34:00,81.7,72.1,0.00,SSE,157,0.0,0.0,67,0.00,,,-99.99,Homeseer,2013-07-02 03:34:00,
2013-07-01 23:44:00,81.9,72.7,0.00,South,180,0.0,0.0,68,0.00,,,-99.99,Homeseer,2013-07-02 03:44:00,
2013-07-01 23:54:00,81.9,73.0,0.00,North,0,1.1,2.0,69,0.00,,,-99.99,Homeseer,2013-07-02 03:54:00,